Barksdale AFB, LA

7:02 PM CDT on July 27, 2017 (GMT -0500)
Barksdale Air Force Base

Weather History for KBAD - January, 2014

Change the Weather History Date:

Sunday, January 5, 2014

  Actual Average Record
Temperature  
Mean Temperature 40 °F -  
Max Temperature 55 °F 55 °F 75 °F (2005)
Min Temperature 23 °F 36 °F 23 °F (1999)
Degree Days  
Heating Degree Days 26    
Moisture  
Dew Point 40 °F    
Average Humidity 82    
Maximum Humidity 100    
Minimum Humidity 51    
Precipitation  
Precipitation 0.03 in - - ()
Sea Level Pressure  
Sea Level Pressure 29.96 in    
Wind  
Wind Speed 12 mph (West)    
Max Wind Speed 25 mph    
Max Gust Speed 33 mph    
Visibility 10 miles    
Events Rain    
Averages and records for this station are not official NWS values.
T = Trace of Precipitation, MM = Missing Value Source: NWS Daily Summary

Daily Weather History Graph

Daily Weather History Graph

Search for Another Location

Airport or City:

Trip Planner

Search our weather history database for the weather conditions in past years. The results will help you decide how hot, cold, wet, or windy it might be!

Date:

Astronomy

Jan. 05, 2014 Rise Set
Actual Time 7:17 AM CST 5:23 PM CST
Civil Twilight 6:50 AM CST 5:50 PM CST
Nautical Twilight 6:19 AM CST 6:20 PM CST
Astronomical Twilight 5:49 AM CST 6:50 PM CST
Moon 10:16 AM CST (1/5) 10:32 PM CST (1/5)
Length of Visible Light 11h 00m
Length of Day
10h 06m
Waxing Crescent, 25% of the Moon is Illuminated
Jan 5
Waxing Crescent
Jan 7
First Quarter
Jan 15
Full
Jan 23
Last Quarter
Jan 30
New

Hourly Weather History & Observations

Time (CST) Temp. Windchill Dew Point Humidity Pressure Visibility Wind Dir Wind Speed Gust Speed Precip Events Conditions
12:38 AM 55.4 °F - 48.2 °F 77% 29.86 in 10.0 mi SSE 12.7 mph - N/A   Overcast
12:58 AM 55.6 °F - 48.9 °F 78% 29.87 in 10.0 mi SSE 11.5 mph - N/A   Overcast
1:28 AM 55.4 °F - 48.2 °F 77% 29.85 in 10.0 mi SSE 9.2 mph - N/A   Overcast
1:58 AM 55.0 °F - 49.1 °F 80% 29.85 in 10.0 mi SSE 11.5 mph - N/A   Mostly Cloudy
2:58 AM 55.0 °F - 49.5 °F 81% 29.82 in 10.0 mi SSE 11.5 mph - N/A   Overcast
3:58 AM 55.0 °F - 49.5 °F 81% 29.83 in 10.0 mi SSE 5.8 mph - N/A   Overcast
4:18 AM 55.4 °F - 50.0 °F 82% 29.81 in 10.0 mi SSE 5.8 mph - N/A   Overcast
4:55 AM 53.6 °F - 50.0 °F 88% 29.82 in 10.0 mi Calm Calm - N/A Rain Light Rain
4:58 AM 54.5 °F - 49.5 °F 83% 29.83 in 10.0 mi Calm Calm - 0.00 in Rain Light Rain
5:14 AM 53.6 °F - 50.0 °F 88% 29.82 in 10.0 mi SSE 2.3 mph - N/A   Overcast
5:28 AM 53.6 °F - 51.8 °F 94% 29.82 in 10.0 mi SSE 6.9 mph - N/A Rain Light Rain
5:41 AM 53.6 °F - 51.8 °F 94% 29.82 in 10.0 mi South 4.6 mph - N/A   Overcast
5:44 AM 53.6 °F - 51.8 °F 94% 29.82 in 10.0 mi South 4.6 mph - N/A Rain Light Rain
5:54 AM 53.6 °F - 51.8 °F 94% 29.81 in 9.0 mi SSE 8.1 mph - N/A Rain Light Rain
5:57 AM 53.6 °F - 51.8 °F 94% 29.81 in 10.0 mi SSE 8.1 mph - N/A   Overcast
5:58 AM 52.9 °F - 52.7 °F 99% 29.82 in 10.0 mi SSE 8.1 mph - 0.01 in   Overcast
6:18 AM 53.6 °F - 53.6 °F 100% 29.80 in 10.0 mi SSE 9.2 mph - N/A   Overcast
6:28 AM 53.6 °F - 53.6 °F 100% 29.81 in 10.0 mi SSE 8.1 mph - N/A   Overcast
6:58 AM 54.0 °F - 54.0 °F 100% 29.81 in 10.0 mi SSE 10.4 mph - 0.00 in   Overcast
7:43 AM 55.4 °F - 55.4 °F 100% 29.81 in 10.0 mi South 10.4 mph - N/A Rain Light Rain
7:54 AM 55.4 °F - 55.4 °F 100% 29.81 in 10.0 mi South 10.4 mph - N/A   Overcast
7:58 AM 55.0 °F - 55.0 °F 100% 29.83 in 10.0 mi South 9.2 mph - 0.01 in   Overcast
8:25 AM 55.4 °F - 55.4 °F 100% 29.85 in 9.0 mi WNW 24.2 mph 33.4 mph N/A Rain Rain
8:34 AM 51.8 °F - 50.0 °F 94% 29.87 in 10.0 mi NW 25.3 mph 33.4 mph N/A Rain Light Rain
8:41 AM 48.2 °F - 46.4 °F 93% 29.88 in 10.0 mi NW 24.2 mph 29.9 mph N/A   Overcast
8:44 AM 48.2 °F - 46.4 °F 93% 29.89 in 10.0 mi NW 20.7 mph 29.9 mph N/A Rain Light Rain
8:58 AM 46.9 °F - 44.8 °F 92% 29.91 in 9.0 mi NW 18.4 mph 27.6 mph 0.01 in Rain Light Rain
9:08 AM 46.4 °F 39.0 °F 44.6 °F 93% 29.91 in 10.0 mi NW 19.6 mph - N/A Rain Light Rain
9:09 AM 44.6 °F 37.2 °F 42.8 °F 93% 29.91 in 10.0 mi NW 17.3 mph - N/A   Overcast
9:49 AM 41.0 °F 32.2 °F 39.2 °F 93% 29.95 in 10.0 mi WNW 18.4 mph 26.5 mph N/A   Overcast
9:58 AM 41.2 °F 31.9 °F 38.1 °F 89% 29.97 in 10.0 mi WNW 20.7 mph 26.5 mph 0.00 in   Overcast
10:10 AM 39.2 °F 29.0 °F 35.6 °F 87% 29.97 in 10.0 mi NW 21.9 mph 28.8 mph N/A Rain Light Rain
10:20 AM 39.2 °F 30.2 °F 35.6 °F 87% 29.98 in 10.0 mi WNW 17.3 mph - N/A Rain Light Rain
10:21 AM 39.2 °F 30.2 °F 35.6 °F 87% 29.98 in 10.0 mi WNW 17.3 mph - N/A   Mostly Cloudy
10:41 AM 37.4 °F 26.9 °F 32.0 °F 81% 29.99 in 10.0 mi NW 20.7 mph 32.2 mph N/A   Overcast
10:58 AM 37.6 °F 27.4 °F 32.7 °F 83% 30.01 in 10.0 mi NW 19.6 mph 27.6 mph 0.00 in   Overcast
11:58 AM 36.1 °F 25.0 °F 29.7 °F 77% 30.02 in 10.0 mi NW 21.9 mph 28.8 mph N/A   Overcast
12:28 PM 39.2 °F 30.2 °F 30.2 °F 70% 30.00 in 10.0 mi NW 17.3 mph 26.5 mph N/A   Scattered Clouds
12:58 PM 39.7 °F 30.9 °F 29.7 °F 67% 30.01 in 10.0 mi NW 17.3 mph 26.5 mph N/A   Scattered Clouds
1:58 PM 39.9 °F 30.2 °F 26.1 °F 58% 30.04 in 10.0 mi NW 20.7 mph - N/A   Clear
2:58 PM 39.2 °F 29.8 °F 23.4 °F 53% 30.08 in 10.0 mi NNW 18.4 mph 27.6 mph N/A   Clear
3:58 PM 38.1 °F 27.6 °F 21.6 °F 51% 30.12 in 10.0 mi NW 21.9 mph - N/A   Clear
4:58 PM 34.2 °F 23.0 °F 19.4 °F 55% 30.17 in 10.0 mi NNW 19.6 mph 27.6 mph N/A   Clear
5:58 PM 31.6 °F 19.3 °F 18.5 °F 58% 30.21 in 10.0 mi NNW 20.7 mph 31.1 mph N/A   Partly Cloudy
6:58 PM 29.1 °F 16.0 °F 16.9 °F 60% 30.27 in 10.0 mi NNW 20.7 mph 31.1 mph N/A   Clear
7:58 PM 28.6 °F 16.4 °F 17.1 °F 62% 30.32 in 10.0 mi NNW 17.3 mph - N/A   Overcast
8:58 PM 26.6 °F 14.3 °F 15.3 °F 62% 30.37 in 10.0 mi NNW 16.1 mph 28.8 mph N/A   Clear
9:58 PM 25.7 °F 11.9 °F 14.9 °F 64% 30.40 in 10.0 mi NNW 19.6 mph 26.5 mph N/A   Clear
10:58 PM 24.8 °F 11.1 °F 14.4 °F 65% 30.44 in 10.0 mi NNW 18.4 mph 24.2 mph N/A   Partly Cloudy
11:58 PM 23.5 °F 10.8 °F 14.2 °F 67% 30.47 in 10.0 mi NNW 15.0 mph - N/A   Clear